Ardabil, Iran

6:42 PM +0330 on October 20, 2019 (GMT +0330)
Ardabil

Weather History for OITL - August, 2019

Change the Weather History Date:

Wednesday, August 14, 2019

  Actual Average (WUND) Record (WUND)
Temperature  
Mean Temperature 62 °F -  
Max Temperature 77 °F - - (-1)
Min Temperature 48 °F - - (-1)
Degree Days  
Heating Degree Days 2    
Growing Degree Days 12 (Base 50)    
Moisture  
Dew Point 55 °F    
Average Humidity 74    
Maximum Humidity 100    
Minimum Humidity 41    
Precipitation  
Precipitation 0.00 in - - ()
Sea Level Pressure  
Sea Level Pressure 30.12 in    
Wind  
Wind Speed 11 mph ()    
Max Wind Speed 26 mph    
Max Gust Speed -    
Visibility 4.9 miles    
Events Fog    
Averages and records for this station are not official NWS values.
T = Trace of Precipitation, MM = Missing Value Source: Averaged Metar Reports

Daily Weather History Graph

Daily Weather History Graph

Search for Another Location

Airport or City:

Astronomy

Aug. 14, 2019 Rise Set
Actual Time 6:29 AM +0430 8:12 PM +0430
Civil Twilight 6:01 AM +0430 8:40 PM +0430
Nautical Twilight 5:26 AM +0430 9:14 PM +0430
Astronomical Twilight 4:50 AM +0430 9:50 PM +0430
Moon 7:50 PM +0430 (8/14) 5:07 AM +0430 (8/14)
Length of Visible Light 14h 39m
Length of Day
13h 42m
Waxing Gibbous, 99% of the Moon is Illuminated
Aug 14
Waxing Gibbous
Aug 15
Full
Aug 23
Last Quarter
Aug 30
New
Sep 6
First Quarter

Hourly Weather History & Observations

Time (+0430) Temp. Dew Point Humidity Pressure Visibility Wind Dir Wind Speed Gust Speed Precip Events Conditions
12:20 AM 55.4 °F 53.6 °F 94% 30.15 in 6.2 mi South 4.6 mph - N/A   Partly Cloudy
1:21 AM 50.0 °F 48.2 °F 94% 30.15 in 6.2 mi NE 6.9 mph - N/A   Partly Cloudy
2:21 AM 50.0 °F 48.2 °F 94% 30.15 in 6.2 mi East 4.6 mph - N/A   Partly Cloudy
3:22 AM 48.2 °F 46.4 °F 93% 30.15 in 6.2 mi NW 4.6 mph - N/A   Partly Cloudy
4:23 AM 50.0 °F 50.0 °F 100% 30.15 in 0.1 mi NE 4.6 mph - N/A Fog Fog
5:20 AM 51.8 °F 51.8 °F 100% 30.15 in 0.1 mi NE 4.6 mph - N/A Fog Fog
6:20 AM 51.8 °F 51.8 °F 100% 30.15 in 0.1 mi Calm Calm - N/A Fog Fog
6:30 AM 51.8 °F 51.8 °F 100% 30.15 in 0.1 mi Calm Calm - N/A Fog Fog
7:20 AM 51.8 °F 51.8 °F 100% 30.15 in 0.1 mi Calm Calm - N/A Fog Fog
8:24 AM 53.6 °F 53.6 °F 100% 30.18 in 0.1 mi North 4.6 mph - N/A Fog Fog
8:30 AM 53.6 °F 53.6 °F 100% 30.18 in 0.1 mi North 4.6 mph - N/A Fog Fog
9:22 AM 55.4 °F 55.4 °F 100% 30.18 in 0.6 mi SW 4.6 mph - N/A Fog Fog
9:30 AM 55.4 °F 55.4 °F 100% 30.18 in 0.6 mi SW 4.6 mph - N/A Fog Fog
10:23 AM 66.2 °F 57.2 °F 73% 30.15 in - NE 4.6 mph - N/A   Clear
10:30 AM 66.2 °F 57.2 °F 73% 30.15 in - NE 4.6 mph - N/A   Clear
11:22 AM 73.4 °F 53.6 °F 50% 30.15 in 6.2 mi East 11.5 mph - N/A   Partly Cloudy
11:30 AM 73.4 °F 53.6 °F 50% 30.15 in 6.2 mi East 11.5 mph - N/A   Partly Cloudy
12:00 PM 75.2 °F 55.4 °F 50% 30.15 in 6.2 mi East 16.1 mph - N/A   Partly Cloudy
12:23 PM 75.2 °F 55.4 °F 50% 30.15 in 6.2 mi ENE 21.9 mph - N/A   Partly Cloudy
12:30 PM 75.2 °F 55.4 °F 50% 30.15 in 6.2 mi ENE 21.9 mph - N/A   Partly Cloudy
1:00 PM 73.4 °F 55.4 °F 53% 30.12 in 6.2 mi ENE 21.9 mph - N/A   Partly Cloudy
1:22 PM 75.2 °F 55.4 °F 50% 30.12 in 6.2 mi ENE 21.9 mph - N/A   Partly Cloudy
1:30 PM 75.2 °F 55.4 °F 50% 30.12 in 6.2 mi ENE 21.9 mph - N/A   Partly Cloudy
2:24 PM 75.2 °F 53.6 °F 47% 30.09 in 6.2 mi ENE 24.2 mph - N/A   Partly Cloudy
2:30 PM 75.2 °F 53.6 °F 47% 30.09 in 6.2 mi ENE 24.2 mph - N/A   Partly Cloudy
3:22 PM 77.0 °F 51.8 °F 41% 30.09 in 6.2 mi ENE 26.5 mph - N/A   Partly Cloudy
3:30 PM 77.0 °F 51.8 °F 41% 30.09 in 6.2 mi ENE 26.5 mph - N/A   Partly Cloudy
4:23 PM 73.4 °F 59.0 °F 61% 30.06 in 6.2 mi ENE 26.5 mph - N/A   Partly Cloudy
4:30 PM 73.4 °F 59.0 °F 61% 30.06 in 6.2 mi ENE 26.5 mph - N/A   Partly Cloudy
5:00 PM 71.6 °F 59.0 °F 64% 30.06 in 6.2 mi ENE 26.5 mph - N/A   Partly Cloudy
5:21 PM 73.4 °F 59.0 °F 61% 30.06 in 6.2 mi ENE 26.5 mph - N/A   Partly Cloudy
5:30 PM 73.4 °F 59.0 °F 61% 30.06 in 6.2 mi ENE 26.5 mph - N/A   Partly Cloudy
6:00 PM 69.8 °F 59.0 °F 68% 30.06 in 6.2 mi ENE 26.5 mph - N/A   Partly Cloudy
6:21 PM 68.0 °F 59.0 °F 73% 30.06 in 6.2 mi ENE 26.5 mph - N/A   Partly Cloudy
6:30 PM 68.0 °F 59.0 °F 73% 30.06 in 6.2 mi ENE 26.5 mph - N/A   Partly Cloudy
7:00 PM 66.2 °F 57.2 °F 73% 30.06 in 6.2 mi ENE 26.5 mph - N/A   Partly Cloudy
7:22 PM 66.2 °F 59.0 °F 78% 30.06 in 6.2 mi ENE 26.5 mph - N/A   Partly Cloudy
7:30 PM 66.2 °F 59.0 °F 78% 30.06 in 6.2 mi ENE 26.5 mph - N/A   Partly Cloudy
8:20 PM 62.6 °F 59.0 °F 88% 30.09 in 6.2 mi ENE 18.4 mph - N/A   Partly Cloudy
9:20 PM 60.8 °F 59.0 °F 94% 30.12 in 6.2 mi SSE 9.2 mph - N/A Fog Partly Cloudy
10:21 PM 57.2 °F 55.4 °F 94% 30.12 in 6.2 mi West 6.9 mph - N/A   Partly Cloudy
11:21 PM 53.6 °F 51.8 °F 94% 30.12 in 6.2 mi SW 4.6 mph - N/A   Partly Cloudy